K0FJ-1 Weather Reports


Display with metric or nautical units.
time (UTC)temp
F
wind
direction
speed
MPH
gust
MPH
rain 1hr
in
rain 24hr
in
rain mn
in
humidity
%
barometer
mb
20260902083503 69 183 2.0 5.0 0.00 0.00 0.00 72 1015.3
20260902083003 69 177 2.0 7.0 0.00 0.00 0.00 72 1015.4
20260902082503 69 172 2.0 8.0 0.00 0.00 0.00 72 1015.5
20260902082003 70 172 2.0 8.0 0.00 0.00 0.00 72 1015.5
20260902081503 70 172 1.0 6.0 0.00 0.00 0.00 71 1015.5
20260902081003 69 167 1.0 6.0 0.00 0.00 0.00 72 1015.5
20260902080503 69 172 2.0 9.0 0.00 0.00 0.00 72 1015.6
20260902080003 69 179 2.0 9.0 0.00 0.00 0.00 71 1015.6
20260902075503 70 175 2.0 6.0 0.00 0.00 0.00 71 1015.6
20260902075003 70 171 2.0 6.0 0.00 0.00 0.00 71 1015.7
20260902074503 70 177 2.0 6.0 0.00 0.00 0.00 70 1015.7
20260902074003 70 180 1.0 6.0 0.00 0.00 0.00 69 1015.7
20260902073503 70 200 0.0 6.0 0.00 0.00 0.00 69 1015.7
20260902073003 70 189 1.0 6.0 0.00 0.00 0.00 68 1015.6
20260902072503 71 170 0.0 4.0 0.00 0.00 0.00 67 1015.7
20260902072003 71 0 0.0 0.0 0.00 0.00 0.00 67 1015.5
20260902071503 71 0 0.0 0.0 0.00 0.00 0.00 66 1015.4
20260902071003 72 222 0.0 3.0 0.00 0.00 0.00 65 1015.5
20260902070503 72 204 1.0 4.0 0.00 0.00 0.00 65 1015.5
20260902070004 72 189 2.0 4.0 0.00 0.00 0.00 64 1015.4
20260902065503 72 182 1.0 4.0 0.00 0.00 0.00 63 1015.4
20260902065003 72 204 1.0 3.0 0.00 0.00 0.00 63 1015.3
20260902064503 73 201 1.0 3.0 0.00 0.00 0.00 63 1015.3
20260902064003 73 179 1.0 3.0 0.00 0.00 0.00 63 1015.3
20260902063503 73 177 0.0 3.0 0.00 0.00 0.00 62 1015.3
20260902063003 73 178 1.0 6.0 0.00 0.00 0.00 62 1015.3
20260902062503 73 182 2.0 6.0 0.00 0.00 0.00 62 1015.3
20260902062003 73 187 1.0 5.0 0.00 0.00 0.00 63 1015.2
20260902061503 73 0 0.0 0.0 0.00 0.00 0.00 63 1015.3
20260902061003 73 214 1.0 4.0 0.00 0.00 0.00 62 1015.3
20260902060503 73 212 1.0 4.0 0.00 0.00 0.00 62 1015.2
20260902060003 73 210 1.0 4.0 0.00 0.00 0.00 62 1015.2
20260902055503 73 209 1.0 5.0 0.00 0.00 0.00 62 1015.2
20260902055003 74 211 2.0 5.0 0.00 0.00 0.00 61 1015.2
20260902054503 74 211 2.0 5.0 0.00 0.00 0.00 61 1015.2
20260902054003 74 212 2.0 5.0 0.00 0.00 0.00 61 1015.3
20260902053503 74 213 2.0 4.0 0.00 0.00 0.00 61 1015.3
20260902053003 74 211 1.0 5.0 0.00 0.00 0.00 61 1015.3
20260902052503 74 205 2.0 5.0 0.00 0.00 0.00 60 1015.5
20260902052003 75 205 2.0 5.0 0.00 0.00 0.00 60 1015.4
20260902051503 75 212 2.0 5.0 0.00 0.00 0.00 59 1015.3
20260902051003 75 211 2.0 5.0 0.00 0.00 0.00 59 1015.5
20260902050503 76 202 1.0 4.0 0.00 0.00 0.00 58 1015.5
20260902050006 76 203 2.0 3.0 0.00 0.00 0.00 58 1015.4
20260902045503 76 198 2.0 3.0 0.00 0.00 0.00 57 1015.4
20260902045003 76 189 2.0 4.0 0.00 0.00 0.00 57 1015.4
20260902044503 76 192 1.0 4.0 0.00 0.00 0.00 57 1015.3
20260902044003 77 207 1.0 4.0 0.00 0.00 0.00 56 1015.3
20260902043503 77 213 1.0 4.0 0.00 0.00 0.00 56 1015.3
20260902043003 77 219 0.0 4.0 0.00 0.00 0.00 57 1015.2
20260902042503 77 0 0.0 0.0 0.00 0.00 0.00 59 1015.2
20260902042003 78 204 0.0 2.0 0.00 0.00 0.00 58 1015.3
20260902041503 78 204 0.0 2.0 0.00 0.00 0.00 57 1015.2
20260902041003 78 204 0.0 2.0 0.00 0.00 0.00 57 1015.2
20260902040503 78 0 0.0 0.0 0.00 0.00 0.00 58 1015.3
20260902040003 78 0 0.0 0.0 0.00 0.00 0.00 58 1015.2
20260902035503 79 0 0.0 0.0 0.00 0.00 0.00 57 1015.2
20260902035003 79 0 0.0 0.0 0.00 0.00 0.00 56 1015.2
20260902034503 79 207 0.0 3.0 0.00 0.00 0.00 56 1015.1
20260902034003 79 211 1.0 4.0 0.00 0.00 0.00 56 1015.2
20260902033503 80 213 1.0 6.0 0.00 0.00 0.00 56 1015.3
20260902033003 80 213 2.0 6.0 0.00 0.00 0.00 56 1015.4
20260902032503 80 224 2.0 6.0 0.00 0.00 0.00 55 1015.5
20260902032003 80 266 3.0 7.0 0.00 0.00 0.00 56 1015.5
20260902031503 80 286 2.0 7.0 0.00 0.00 0.00 57 1015.6
20260902031003 80 284 1.0 5.0 0.00 0.00 0.00 57 1015.7
20260902030503 80 270 2.0 6.0 0.00 0.00 0.00 56 1015.6
20260902030003 80 268 1.0 6.0 0.00 0.00 0.00 56 1015.6
20260902025503 81 269 2.0 5.0 0.00 0.00 0.00 55 1015.6
20260902025003 81 258 2.0 7.0 0.00 0.00 0.00 55 1015.5
20260902024503 81 247 3.0 7.0 0.00 0.00 0.00 55 1015.3
20260902024003 82 241 3.0 8.0 0.00 0.00 0.00 54 1015.4
20260902023503 82 233 3.0 8.0 0.00 0.00 0.00 53 1015.2
20260902023003 82 230 4.0 10.0 0.00 0.00 0.00 52 1015.3
20260902022503 83 233 5.0 13.0 0.00 0.00 0.00 51 1015.3
20260902022003 84 241 6.0 13.0 0.00 0.00 0.00 50 1015.2
20260902021503 84 245 6.0 13.0 0.00 0.00 0.00 47 1015.1
20260902021003 85 238 5.0 12.0 0.00 0.00 0.00 45 1015.1
20260902020503 86 224 6.0 14.0 0.00 0.00 0.00 44 1014.9
20260902020003 86 216 7.0 14.0 0.00 0.00 0.00 43 1014.8
20260902015503 86 197 7.0 14.0 0.00 0.00 0.00 43 1014.7
20260902015003 86 179 7.0 14.0 0.00 0.00 0.00 42 1014.4
20260902014503 86 173 5.0 14.0 0.00 0.00 0.00 41 1014.3
20260902014003 86 175 1.0 14.0 0.00 0.00 0.00 41 1014.1
20260902013503 87 170 0.0 5.0 0.00 0.00 0.00 41 1014.1
20260902013003 87 168 0.0 2.0 0.00 0.00 0.00 41 1014.0
20260902012503 88 169 0.0 1.0 0.00 0.00 0.00 40 1013.9
20260902012003 88 152 0.0 1.0 0.00 0.00 0.00 39 1013.8
20260902011503 88 171 0.0 2.0 0.00 0.00 0.00 39 1013.8
20260902011003 89 173 0.0 2.0 0.00 0.00 0.00 39 1013.8
20260902010503 89 187 0.0 3.0 0.00 0.00 0.00 38 1013.8
20260902010003 90 190 0.0 3.0 0.00 0.00 0.00 37 1013.8
20260902005503 90 168 0.0 2.0 0.00 0.00 0.00 36 1013.9
20260902005003 90 162 0.0 4.0 0.00 0.00 0.00 35 1013.9
20260902004503 91 169 1.0 4.0 0.00 0.00 0.00 35 1013.9
20260902004003 91 166 2.0 7.0 0.00 0.00 0.00 34 1014.0
20260902003503 92 163 3.0 7.0 0.00 0.00 0.00 34 1014.0
20260902003003 92 160 3.0 7.0 0.00 0.00 0.00 33 1014.0
20260902002503 93 169 3.0 7.0 0.00 0.00 0.00 32 1014.0
20260902002003 93 173 3.0 10.0 0.00 0.00 0.00 32 1014.0
20260902001503 94 168 2.0 10.0 0.00 0.00 0.00 30 1014.1
20260902001003 94 174 3.0 9.0 0.00 0.00 0.00 31 1014.1
20260902000503 94 176 5.0 9.0 0.00 0.00 0.00 30 1014.2
20260902000003 94 171 4.0 10.0 0.00 0.00 0.00 30 1014.1
20260901235503 94 168 4.0 10.0 0.00 0.00 0.00 29 1014.2
20260901235003 94 168 4.0 10.0 0.00 0.00 0.00 29 1014.2
20260901234503 94 172 4.0 10.0 0.00 0.00 0.00 29 1014.2
20260901234003 95 174 4.0 11.0 0.00 0.00 0.00 30 1014.2
20260901233503 95 175 5.0 11.0 0.00 0.00 0.00 29 1014.1
20260901233003 95 179 5.0 11.0 0.00 0.00 0.00 28 1014.2
20260901232503 95 180 5.0 11.0 0.00 0.00 0.00 28 1014.2
20260901232003 95 182 5.0 11.0 0.00 0.00 0.00 29 1014.2
20260901231503 95 187 6.0 13.0 0.00 0.00 0.00 29 1014.3
20260901231003 95 190 6.0 13.0 0.00 0.00 0.00 29 1014.4
20260901230503 95 195 6.0 14.0 0.00 0.00 0.00 29 1014.4
20260901230003 95 187 7.0 16.0 0.00 0.00 0.00 29 1014.4
20260901225503 95 182 7.0 16.0 0.00 0.00 0.00 28 1014.4
20260901225003 95 184 5.0 16.0 0.00 0.00 0.00 29 1014.4
20260901224503 94 191 5.0 11.0 0.00 0.00 0.00 30 1014.5
20260901224003 94 192 6.0 11.0 0.00 0.00 0.00 30 1014.5
20260901223503 94 186 7.0 13.0 0.00 0.00 0.00 30 1014.5
20260901223003 94 187 7.0 14.0 0.00 0.00 0.00 29 1014.6
20260901222503 94 192 8.0 14.0 0.00 0.00 0.00 29 1014.6
20260901222003 95 190 8.0 15.0 0.00 0.00 0.00 29 1014.6
20260901221503 95 191 9.0 18.0 0.00 0.00 0.00 29 1014.5
20260901221003 95 189 8.0 22.0 0.00 0.00 0.00 29 1014.4
20260901220503 95 183 7.0 22.0 0.00 0.00 0.00 29 1014.4
20260901220003 95 185 7.0 18.0 0.00 0.00 0.00 29 1014.4
20260901215503 96 181 8.0 18.0 0.00 0.00 0.00 29 1014.4
20260901215003 96 178 8.0 18.0 0.00 0.00 0.00 28 1014.4
20260901214503 96 173 7.0 18.0 0.00 0.00 0.00 28 1014.5
20260901214003 95 170 7.0 17.0 0.00 0.00 0.00 28 1014.5
20260901213503 95 175 8.0 17.0 0.00 0.00 0.00 29 1014.6
20260901213003 95 181 7.0 14.0 0.00 0.00 0.00 29 1014.6
20260901212503 96 176 6.0 15.0 0.00 0.00 0.00 29 1014.6
20260901212003 96 170 7.0 18.0 0.00 0.00 0.00 29 1014.6
20260901211503 95 181 7.0 18.0 0.00 0.00 0.00 29 1014.7
20260901211003 95 190 6.0 15.0 0.00 0.00 0.00 30 1014.8
20260901210503 95 194 6.0 15.0 0.00 0.00 0.00 30 1015.0
20260901210003 95 207 6.0 14.0 0.00 0.00 0.00 29 1015.0
20260901205503 95 204 4.0 14.0 0.00 0.00 0.00 29 1014.9
20260901205003 95 197 4.0 12.0 0.00 0.00 0.00 33 1015.0
20260901204503 94 202 4.0 9.0 0.00 0.00 0.00 32 1015.2
20260901204003 94 194 5.0 13.0 0.00 0.00 0.00 32 1015.3
20260901203503 95 191 6.0 13.0 0.00 0.00 0.00 33 1015.4
20260901203003 95 185 5.0 12.0 0.00 0.00 0.00 34 1015.5
20260901202503 95 174 4.0 14.0 0.00 0.00 0.00 34 1015.5
20260901202003 95 177 5.0 14.0 0.00 0.00 0.00 34 1015.6
20260901201503 95 193 6.0 12.0 0.00 0.00 0.00 33 1015.7
20260901201003 96 198 6.0 15.0 0.00 0.00 0.00 32 1015.8
20260901200503 96 202 6.0 15.0 0.00 0.00 0.00 34 1015.9
20260901200003 96 224 4.0 11.0 0.00 0.00 0.00 34 1015.9
20260901195503 95 214 4.0 11.0 0.00 0.00 0.00 38 1016.0
20260901195003 95 186 5.0 14.0 0.00 0.00 0.00 37 1016.0
20260901194503 95 190 6.0 14.0 0.00 0.00 0.00 37 1016.2
20260901194003 95 196 6.0 15.0 0.00 0.00 0.00 37 1016.2
20260901193503 95 191 5.0 15.0 0.00 0.00 0.00 36 1016.3
20260901193003 95 195 4.0 10.0 0.00 0.00 0.00 38 1016.3
20260901192503 94 200 6.0 13.0 0.00 0.00 0.00 38 1016.5
20260901192003 94 195 6.0 14.0 0.00 0.00 0.00 38 1016.6
20260901191503 94 195 6.0 15.0 0.00 0.00 0.00 38 1016.6
20260901191003 93 194 7.0 15.0 0.00 0.00 0.00 39 1016.6
20260901190503 93 194 6.0 15.0 0.00 0.00 0.00 38 1016.6
20260901190003 93 210 5.0 12.0 0.00 0.00 0.00 39 1016.6
20260901185503 93 206 4.0 12.0 0.00 0.00 0.00 41 1016.6
20260901185003 92 191 5.0 12.0 0.00 0.00 0.00 42 1016.7
20260901184503 92 190 5.0 12.0 0.00 0.00 0.00 41 1016.7
20260901184003 92 187 4.0 12.0 0.00 0.00 0.00 41 1016.8
20260901183503 92 184 4.0 12.0 0.00 0.00 0.00 41 1016.9
20260901183003 92 185 4.0 12.0 0.00 0.00 0.00 43 1016.9
20260901182503 91 187 5.0 12.0 0.00 0.00 0.00 41 1017.0
20260901182003 91 179 5.0 11.0 0.00 0.00 0.00 42 1016.9
20260901181503 91 172 4.0 9.0 0.00 0.00 0.00 45 1016.8
20260901181003 90 173 4.0 10.0 0.00 0.00 0.00 45 1016.9
20260901180503 90 166 4.0 10.0 0.00 0.00 0.00 45 1017.0
20260901180003 90 155 3.0 9.0 0.00 0.00 0.00 46 1017.2
20260901175503 90 172 3.0 9.0 0.00 0.00 0.00 45 1017.3
20260901175003 90 186 4.0 11.0 0.00 0.00 0.00 45 1017.3
20260901174503 89 181 5.0 11.0 0.00 0.00 0.00 45 1017.4
20260901174003 88 182 5.0 13.0 0.00 0.00 0.00 45 1017.5
20260901173503 88 185 6.0 13.0 0.00 0.00 0.00 47 1017.5
20260901173003 88 185 6.0 14.0 0.00 0.00 0.00 47 1017.6
20260901172503 88 183 5.0 14.0 0.00 0.00 0.00 46 1017.7
20260901172003 87 179 5.0 13.0 0.00 0.00 0.00 47 1017.6
20260901171503 87 184 6.0 13.0 0.00 0.00 0.00 49 1017.7
20260901171003 87 182 5.0 11.0 0.00 0.00 0.00 47 1017.7
20260901170503 87 184 5.0 14.0 0.00 0.00 0.00 48 1017.7
20260901170003 86 190 6.0 14.0 0.00 0.00 0.00 48 1017.7
20260901165503 86 187 6.0 12.0 0.00 0.00 0.00 48 1017.7
20260901165003 86 184 5.0 11.0 0.00 0.00 0.00 48 1017.8
20260901164503 86 182 6.0 14.0 0.00 0.00 0.00 50 1017.6
20260901164003 86 184 6.0 14.0 0.00 0.00 0.00 48 1017.8
20260901163503 85 180 6.0 13.0 0.00 0.00 0.00 49 1017.8
20260901163003 85 175 6.0 12.0 0.00 0.00 0.00 51 1017.8
20260901162503 85 181 6.0 13.0 0.00 0.00 0.00 51 1017.8
20260901162003 85 182 5.0 13.0 0.00 0.00 0.00 50 1017.8
20260901161503 84 175 5.0 14.0 0.00 0.00 0.00 51 1017.8
20260901161003 84 170 4.0 14.0 0.00 0.00 0.00 51 1017.8
20260901160503 84 160 4.0 11.0 0.00 0.00 0.00 53 1017.6
20260901160003 84 169 4.0 10.0 0.00 0.00 0.00 52 1017.7
20260901155503 83 176 5.0 13.0 0.00 0.00 0.00 52 1017.8
20260901155003 83 178 6.0 14.0 0.00 0.00 0.00 52 1017.8
20260901154503 83 176 4.0 14.0 0.00 0.00 0.00 52 1017.8
20260901154003 82 158 4.0 10.0 0.00 0.00 0.00 54 1017.8
20260901153503 82 171 5.0 13.0 0.00 0.00 0.00 53 1017.7
20260901153003 82 173 4.0 13.0 0.00 0.00 0.00 53 1017.8
20260901152503 82 163 4.0 11.0 0.00 0.00 0.00 55 1017.8
20260901152003 81 163 4.0 11.0 0.00 0.00 0.00 54 1017.8
20260901151503 81 169 4.0 10.0 0.00 0.00 0.00 55 1017.7
20260901151003 80 171 4.0 10.0 0.00 0.00 0.00 56 1017.7
20260901150503 80 168 3.0 9.0 0.00 0.00 0.00 56 1017.8
20260901150003 79 166 2.0 9.0 0.00 0.00 0.00 58 1017.8
20260901145503 78 168 2.0 6.0 0.00 0.00 0.00 62 1017.8
20260901145003 77 177 2.0 6.0 0.00 0.00 0.00 64 1017.9
20260901144503 76 182 2.0 6.0 0.00 0.00 0.00 66 1017.8
20260901144003 76 183 1.0 6.0 0.00 0.00 0.00 68 1017.9
20260901143503 75 170 1.0 5.0 0.00 0.00 0.00 70 1017.8
20260901143003 74 178 2.0 5.0 0.00 0.00 0.00 70 1017.9
20260901142503 74 196 2.0 4.0 0.00 0.00 0.00 70 1017.9
20260901142003 73 202 1.0 4.0 0.00 0.00 0.00 74 1018.0
20260901141503 72 194 0.0 4.0 0.00 0.00 0.00 75 1018.0
20260901141003 71 211 0.0 2.0 0.00 0.00 0.00 78 1018.1
20260901140503 70 0 0.0 0.0 0.00 0.00 0.00 80 1018.0
20260901140003 70 0 0.0 0.0 0.00 0.00 0.00 81 1018.0
20260901135503 70 0 0.0 0.0 0.00 0.00 0.00 81 1018.0
20260901135003 69 0 0.0 0.0 0.00 0.00 0.00 82 1018.1
20260901134503 69 0 0.0 0.0 0.00 0.00 0.00 82 1018.1
20260901134003 68 211 0.0 2.0 0.00 0.00 0.00 82 1018.0
20260901133503 68 211 0.0 2.0 0.00 0.00 0.00 82 1017.9
20260901133003 68 213 0.0 2.0 0.00 0.00 0.00 82 1017.9
20260901132503 68 217 1.0 3.0 0.00 0.00 0.00 83 1017.8
20260901132003 67 216 2.0 3.0 0.00 0.00 0.00 83 1017.7
20260901131503 67 215 2.0 4.0 0.00 0.00 0.00 83 1017.7
20260901131003 67 213 2.0 4.0 0.00 0.00 0.00 83 1017.8
20260901130503 66 201 1.0 3.0 0.00 0.00 0.00 83 1017.7
20260901130003 66 200 2.0 4.0 0.00 0.00 0.00 83 1017.6
20260901125503 66 219 1.0 4.0 0.00 0.00 0.00 83 1017.6
20260901125003 66 256 0.0 4.0 0.00 0.00 0.00 83 1017.6
20260901124503 66 207 0.0 1.0 0.00 0.00 0.00 83 1017.5
20260901124003 66 207 0.0 3.0 0.00 0.00 0.00 83 1017.4
20260901123503 66 207 0.0 3.0 0.00 0.00 0.00 83 1017.3
20260901123003 66 0 0.0 0.0 0.00 0.00 0.00 83 1017.2
20260901122503 66 207 0.0 2.0 0.00 0.00 0.00 83 1017.2
20260901122003 66 207 0.0 2.0 0.00 0.00 0.00 83 1017.2
20260901121503 66 0 0.0 0.0 0.00 0.00 0.00 83 1017.1
20260901121003 66 0 0.0 0.0 0.00 0.00 0.00 82 1017.0
20260901120503 66 0 0.0 0.0 0.00 0.00 0.00 82 1017.1
20260901120003 66 0 0.0 0.0 0.00 0.00 0.00 82 1017.1
20260901115503 66 0 0.0 0.0 0.00 0.00 0.00 82 1016.9
20260901115003 66 0 0.0 0.0 0.00 0.00 0.00 82 1016.9
20260901114503 67 0 0.0 0.0 0.00 0.00 0.00 82 1016.9
20260901114003 67 0 0.0 0.0 0.00 0.00 0.00 81 1016.9
20260901113503 67 0 0.0 0.0 0.00 0.00 0.00 81 1016.8
20260901113003 67 0 0.0 0.0 0.00 0.00 0.00 81 1016.9
20260901112503 67 0 0.0 0.0 0.00 0.00 0.00 81 1016.9
20260901112003 67 0 0.0 0.0 0.00 0.00 0.00 80 1016.9
20260901111503 67 0 0.0 0.0 0.00 0.00 0.00 80 1016.9
20260901111003 67 0 0.0 0.0 0.00 0.00 0.00 80 1016.9
20260901110503 68 207 0.0 2.0 0.00 0.00 0.00 79 1017.0
20260901110003 68 209 0.0 2.0 0.00 0.00 0.00 79 1017.0
20260901105503 68 207 1.0 3.0 0.00 0.00 0.00 79 1017.1
20260901105003 68 207 1.0 3.0 0.00 0.00 0.00 78 1017.2
20260901104503 68 205 0.0 3.0 0.00 0.00 0.00 78 1017.0
20260901104003 68 205 0.0 3.0 0.00 0.00 0.00 78 1017.1
20260901103503 69 0 0.0 0.0 0.00 0.00 0.00 77 1017.1
20260901103003 69 0 0.0 0.0 0.00 0.00 0.00 77 1017.2
20260901102503 69 0 0.0 0.0 0.00 0.00 0.00 76 1017.2
20260901102003 69 0 0.0 0.0 0.00 0.00 0.00 76 1017.1
20260901101503 70 202 0.0 1.0 0.00 0.00 0.00 75 1017.2
20260901101003 70 217 1.0 5.0 0.00 0.00 0.00 74 1017.2
20260901100503 70 229 1.0 5.0 0.00 0.00 0.00 73 1017.2
20260901100003 70 315 1.0 4.0 0.00 0.00 0.00 72 1017.2
20260901095503 71 307 2.0 6.0 0.00 0.00 0.00 72 1017.2
20260901095003 71 310 3.0 7.0 0.00 0.00 0.00 72 1017.2
20260901094503 71 314 3.0 7.0 0.00 0.00 0.00 71 1017.3
20260901094003 71 308 3.0 7.0 0.00 0.00 0.00 71 1017.4
20260901093503 71 305 4.0 8.0 0.00 0.00 0.00 71 1017.4
20260901093003 72 309 4.0 9.0 0.00 0.00 0.00 70 1017.5
20260901092503 72 314 5.0 11.0 0.00 0.00 0.00 70 1017.5
20260901092003 72 304 4.0 11.0 0.00 0.00 0.00 70 1017.5
20260901091503 72 301 4.0 10.0 0.00 0.01 0.00 70 1017.6
20260901091003 72 299 4.0 10.0 0.00 0.01 0.00 70 1017.6
20260901090503 72 290 4.0 9.0 0.00 0.01 0.00 70 1017.7
20260901090003 72 293 4.0 9.0 0.00 0.02 0.00 70 1017.8
20260901085503 72 299 4.0 10.0 0.00 0.03 0.00 69 1017.8
20260901085003 73 302 4.0 11.0 0.00 0.04 0.00 69 1017.9
20260901084503 73 295 5.0 11.0 0.00 0.04 0.00 69 1017.8
20260901084003 73 291 5.0 14.0 0.00 0.05 0.00 68 1017.9